GFSGL_850_spd_060.txt.gz
Wind_Speed
37 38 38 39 39 38 38 38 38 41 42 41 38 34 30 26 23 19 15 12 10 9 7 7 7 6 7 7 8 9 10 12 15 17 19 20 21 23 26 28 30 32 34
37 40 37 38 39 38 38 40 41 43 43 40 37 33 30 26 22 18 15 12 10 9 8 8 8 8 8 9 9 10 11 14 17 20 22 23 24 26 28 31 33 34 37
38 41 38 39 40 40 40 41 43 45 44 41 37 33 30 27 23 19 15 13 11 9 8 9 9 9 10 10 11 12 13 16 18 22 25 26 28 29 31 33 35 37 39
41 43 42 43 42 42 41 43 44 46 44 41 38 34 31 28 24 20 18 16 13 9 13 12 12 12 12 13 14 14 16 18 20 23 26 28 30 31 34 36 38 39 42
43 45 46 43 43 43 43 44 47 48 45 42 39 36 32 28 25 22 19 17 12 17 16 15 15 15 16 17 18 18 19 21 23 26 28 30 32 33 34 36 39 41 44
44 45 45 43 44 44 43 46 48 48 46 43 40 37 34 31 27 23 20 19 17 21 20 19 18 18 19 21 22 22 23 24 26 29 30 32 34 34 34 36 37 40 44
43 45 46 47 46 45 44 46 48 48 45 43 41 38 34 30 24 24 24 23 20 25 23 23 22 22 22 25 25 27 28 28 30 32 33 34 36 35 35 35 34 37 41
41 43 46 47 47 46 45 46 48 49 46 44 41 38 34 28 26 28 28 32 23 28 30 27 26 26 26 27 29 30 31 32 32 32 34 35 35 34 31 29 34 37 43
39 42 45 46 46 45 46 47 48 47 44 43 40 37 34 25 31 31 33 35 27 31 35 32 30 30 28 29 32 34 35 36 35 34 35 36 35 27 21 31 34 34 44
36 38 39 40 42 43 43 43 44 43 41 39 38 35 30 30 34 34 36 35 33 33 36 35 34 33 31 31 33 35 38 40 38 38 36 34 33 32 31 30 30 34 36
26 28 31 35 38 38 38 40 40 38 36 35 34 30 33 33 36 34 38 35 34 34 40 38 37 34 33 34 35 38 40 39 40 38 39 39 36 35 33 30 31 34 34
17 20 23 28 33 34 34 34 34 32 31 32 33 34 34 38 33 37 36 31 35 38 41 40 38 36 36 36 36 37 37 35 35 36 37 38 37 36 36 35 36 34 34
10 11 14 19 24 27 29 28 27 28 31 36 38 39 35 34 36 36 33 34 35 40 40 39 39 38 39 39 36 32 28 29 32 34 36 38 38 37 37 38 38 36 34
10 10 11 15 20 25 29 30 30 33 36 37 36 34 32 32 33 32 32 31 32 36 37 39 38 38 37 36 35 32 30 30 31 33 35 37 37 37 37 38 38 38 36
10 10 10 10 12 14 16 18 21 22 24 27 28 27 30 33 29 26 26 28 29 30 30 32 33 33 33 32 31 31 32 31 31 30 32 34 37 36 36 36 36 34 31
11 11 10 10 11 12 13 15 17 18 20 23 24 26 27 27 26 26 26 26 26 25 26 27 28 28 28 29 29 29 29 32 35 36 36 36 37 35 35 33 29 28 31
9 8 7 7 8 8 10 12 14 16 19 21 22 23 23 23 23 23 22 24 25 22 22 23 22 24 25 27 30 34 36 36 35 34 34 33 32 30 27 27 26 27 29
5 5 5 6 6 7 9 11 13 15 16 16 17 19 19 19 18 19 20 20 17 18 19 22 24 27 30 32 33 33 34 33 32 31 29 28 26 25 25 25 24 25 25
3 4 5 6 7 9 11 13 14 15 17 18 19 19 19 18 19 18 16 18 19 20 22 23 24 25 26 28 29 29 29 28 26 25 23 22 22 23 24 24 24 23 22
6 7 7 8 9 11 12 13 15 16 17 18 19 19 19 19 19 18 19 20 20 20 21 21 22 23 24 24 24 24 23 22 21 21 21 21 20 21 21 21 20 20 18
6 7 8 8 9 10 12 12 13 14 15 15 16 17 19 18 19 19 19 19 19 19 21 21 20 20 20 21 21 21 20 19 19 19 19 19 19 19 18 19 18 18 16
7 7 7 8 8 9 10 11 12 13 14 15 16 18 21 17 18 18 18 20 20 20 21 20 18 17 17 17 18 19 19 18 17 18 18 18 18 18 18 18 17 16 15
7 7 7 7 8 9 10 11 12 14 15 16 16 17 18 18 18 19 20 20 20 19 19 18 16 15 16 17 18 19 19 18 17 18 18 18 18 18 17 17 16 15 15
6 7 7 8 10 11 12 13 14 14 15 15 16 17 19 20 21 21 21 20 19 17 17 18 18 18 17 18 19 20 20 19 19 18 19 19 17 17 16 16 16 16 16
8 9 10 11 11 12 12 13 14 15 16 18 19 20 21 22 21 20 19 19 18 18 18 19 20 20 19 19 20 19 20 20 19 19 19 20 18 17 16 16 16 17 17
10 11 11 12 13 13 14 16 18 19 20 21 21 21 21 21 20 19 20 20 20 19 19 19 20 21 20 20 19 19 19 20 19 19 20 21 19 18 17 17 17 17 17

GFSGL_850_spd_063.txt.gz
Wind_Speed
36 38 37 35 37 38 39 39 38 38 39 38 39 42 41 38 36 32 28 24 21 18 16 13 11 9 9 9 9 9 8 9 10 13 14 16 17 18 19 22 25 27 29
33 36 36 33 38 39 39 39 38 39 41 41 43 45 43 39 36 32 28 24 20 17 15 13 10 8 13 12 11 10 10 12 13 14 16 18 19 20 23 26 28 30 32
33 36 37 35 38 39 38 38 38 40 41 42 43 45 42 39 35 31 26 22 19 17 14 9 8 15 14 13 12 11 12 14 15 16 19 21 22 23 26 29 31 34 36
33 37 38 36 38 36 36 37 37 39 41 42 44 45 42 39 35 31 27 24 21 17 11 10 13 15 14 14 15 14 15 17 18 20 23 24 26 26 28 32 36 36 39
35 39 39 35 37 37 37 37 37 38 40 42 45 47 43 40 36 32 29 25 21 15 16 14 17 17 16 18 18 17 18 20 21 24 26 28 29 29 31 35 39 41 43
35 39 39 37 40 41 39 39 39 39 42 45 48 49 45 41 36 32 28 25 20 22 20 16 19 21 20 21 21 21 23 23 24 27 29 31 31 32 34 37 40 42 44
35 37 40 40 42 43 41 40 42 43 43 47 50 49 45 41 37 33 30 25 23 26 28 20 24 23 24 25 25 26 27 27 28 30 33 33 34 35 37 39 40 42 39
36 38 40 42 42 43 41 41 42 42 43 47 50 48 44 41 37 34 31 28 27 34 30 25 27 27 28 28 30 31 31 31 31 32 35 36 36 37 38 36 39 39 37
34 36 38 40 42 42 42 41 42 41 43 46 48 46 43 39 37 35 32 28 35 36 33 30 30 32 31 31 34 34 34 35 35 34 35 36 37 36 32 31 32 34 41
30 30 33 35 38 40 39 40 41 39 42 43 42 40 39 37 36 34 28 32 36 36 37 31 36 33 32 34 36 36 38 39 37 38 38 37 35 34 32 31 31 34 36
21 21 23 26 29 33 35 35 36 36 34 34 37 37 36 34 34 32 34 40 37 37 36 33 32 32 33 35 35 37 39 38 39 39 40 39 36 32 31 31 30 31 34
14 14 16 18 22 26 27 28 28 26 28 30 32 33 31 31 33 35 40 43 35 39 36 34 32 32 33 33 36 37 37 35 36 38 36 35 35 35 33 32 33 34 34
12 12 12 13 15 18 21 22 21 23 24 26 28 29 30 31 38 39 36 37 35 36 37 34 34 32 32 35 36 35 33 31 31 31 32 34 35 36 38 38 37 36 36
12 12 11 12 14 15 16 18 20 23 26 28 31 35 36 36 35 36 40 37 30 33 32 36 35 34 34 35 35 32 28 28 30 32 34 33 34 34 35 35 37 36 36
13 13 12 12 13 16 18 19 21 21 23 26 28 27 28 30 29 28 27 28 29 28 28 30 32 33 34 34 33 33 32 30 28 27 27 30 33 35 35 36 34 33 30
13 14 13 13 13 12 12 14 15 16 17 20 21 23 25 26 26 27 26 26 25 24 28 29 30 31 31 30 28 26 25 24 26 29 31 30 30 31 30 29 29 26 25
11 12 12 11 10 10 11 11 12 14 17 17 18 20 21 21 21 21 22 23 24 23 25 24 25 24 23 22 22 23 26 27 29 29 28 27 26 26 26 25 23 22 23
13 11 10 9 8 8 8 8 9 10 12 13 15 17 18 19 20 21 22 20 17 18 19 19 19 19 20 22 24 25 25 26 26 25 24 23 21 21 20 19 19 20 21
10 9 9 7 6 6 5 6 8 10 12 13 13 13 13 14 17 16 15 15 16 16 17 19 20 22 22 22 23 24 23 23 23 22 20 19 18 17 17 16 17 17 19
6 5 5 4 4 5 6 7 8 10 12 13 14 15 16 17 15 13 15 15 17 18 19 20 20 21 22 22 21 21 20 19 19 18 18 16 16 15 15 15 15 16 16
3 3 3 4 5 6 7 8 9 10 12 13 15 16 18 18 18 17 17 18 19 19 20 20 20 20 20 19 19 18 17 16 16 16 15 14 14 14 15 15 15 15 15
1 2 3 4 5 6 7 8 10 11 12 13 15 17 20 17 18 18 19 19 19 19 19 19 18 18 18 17 17 16 15 15 15 15 15 15 15 15 15 15 15 15 14
1 3 5 7 7 8 9 10 11 12 14 15 17 18 19 18 18 18 19 19 19 20 19 18 17 16 16 16 16 16 15 14 14 15 15 16 16 16 16 16 16 14 13
2 3 5 6 7 9 10 12 13 14 15 16 17 18 19 19 19 19 20 21 20 19 19 18 17 16 16 16 16 17 16 15 15 15 16 16 15 16 16 16 16 15 14
5 6 7 8 9 10 11 13 14 15 15 16 17 18 19 20 20 20 20 20 20 19 19 19 18 18 17 16 16 17 17 16 16 16 17 17 17 16 16 16 16 16 15
6 7 8 9 10 12 13 15 16 18 18 20 21 21 22 22 22 21 21 21 20 20 19 20 19 19 19 17 17 17 17 17 16 17 18 17 17 17 17 17 18 17 16

GFSGL_850_spd_069.txt.gz
Wind_Speed
16 19 23 26 31 36 38 39 38 37 39 39 40 43 44 43 43 43 42 41 42 42 42 39 33 29 27 24 21 19 14 8 12 12 15 16 16 14 15 16 18 20 21
15 16 19 22 27 33 37 37 36 38 39 37 36 38 41 44 44 44 43 41 42 43 42 38 34 31 28 25 22 17 10 9 11 16 17 17 16 15 17 19 21 23 25
20 18 19 21 25 29 34 36 37 36 36 39 40 40 42 44 44 46 42 42 43 42 40 38 35 33 30 27 22 12 10 12 14 18 18 17 16 18 20 22 24 27 29
28 27 24 24 25 28 30 34 36 35 36 39 39 40 41 42 43 47 43 44 43 42 39 37 36 33 31 27 14 12 15 12 16 18 19 19 19 20 23 25 28 30 33
29 30 31 29 29 30 31 34 35 33 32 37 38 39 39 41 44 44 43 42 43 42 40 37 33 31 29 19 14 15 13 14 19 20 20 21 21 23 26 29 32 35 37
33 35 32 34 34 32 32 34 34 33 32 36 38 38 40 41 43 42 43 42 44 43 40 37 34 32 26 14 16 15 13 19 21 21 22 24 23 26 28 30 34 36 40
34 34 35 36 36 35 32 33 34 35 32 36 38 38 37 39 41 42 44 42 44 41 38 36 34 31 21 13 17 18 21 23 22 22 26 26 27 27 30 32 34 37 40
31 34 36 36 36 35 34 33 35 35 32 35 36 35 35 37 40 42 44 42 40 38 36 35 33 30 15 16 20 23 24 26 26 30 27 28 30 29 31 33 35 39 41
26 28 28 29 32 33 34 32 33 35 32 34 36 34 34 34 37 41 42 40 39 38 35 33 33 27 17 23 25 25 29 32 32 30 31 31 32 31 31 33 35 35 39
25 23 23 24 27 29 29 29 30 31 30 33 34 33 33 33 35 38 37 37 38 37 34 33 34 26 23 29 26 28 31 31 30 30 31 31 32 32 31 30 31 31 31
20 20 19 19 19 20 22 25 26 29 31 31 30 30 30 30 31 32 32 35 36 35 35 36 34 30 35 30 29 30 31 27 30 30 30 32 33 33 32 28 25 26 27
16 15 15 14 14 15 17 19 21 23 24 24 24 24 24 22 23 27 30 34 34 35 34 35 34 33 32 31 33 28 26 27 28 29 31 30 29 28 30 30 29 29 30
11 10 10 10 10 10 12 14 15 16 17 18 18 17 17 19 23 26 28 29 30 32 32 31 34 34 36 36 29 25 24 25 25 25 26 26 27 31 32 31 30 28 31
5 4 5 5 6 7 9 10 10 11 13 15 14 13 15 17 22 27 27 25 27 29 31 33 33 38 37 35 29 27 24 25 26 25 26 29 31 30 29 27 27 29 29
6 6 6 6 6 8 8 7 7 6 5 7 8 9 11 15 19 23 27 31 30 27 28 31 34 35 36 32 30 29 26 26 26 27 28 28 28 26 24 27 27 26 25
7 8 8 9 9 7 6 7 6 5 4 2 3 5 7 10 13 17 20 22 25 28 29 31 33 33 30 30 31 29 28 27 27 26 26 24 22 23 25 26 25 24 22
11 12 11 11 10 8 7 6 5 4 3 3 3 4 6 7 8 9 13 18 23 27 29 29 28 28 28 27 28 27 26 27 25 22 21 22 24 23 24 23 23 22 21
12 12 12 11 11 10 8 6 5 3 4 5 7 8 9 9 10 11 13 17 19 22 23 25 23 22 22 23 23 23 24 22 21 21 23 24 23 22 21 21 21 20 18
12 12 11 10 10 9 8 7 6 4 2 2 2 3 6 5 6 8 10 12 14 15 17 19 19 20 20 20 19 19 20 21 23 23 24 23 22 20 19 19 18 17 16
4 6 8 8 8 8 7 6 5 4 3 3 4 4 3 4 4 5 7 10 13 14 15 17 18 18 19 20 21 22 23 23 24 23 23 22 21 19 18 18 17 16 16
9 9 8 8 7 6 5 5 4 4 5 6 6 8 9 10 10 11 12 13 15 17 18 19 20 21 22 23 23 23 23 23 23 22 23 21 20 19 17 17 18 17 16
7 6 6 5 5 4 4 4 4 5 6 7 9 11 11 12 14 15 16 17 18 19 20 22 22 23 23 23 23 23 23 23 23 23 23 21 20 19 19 18 18 17 17
7 6 5 5 4 3 3 3 4 5 6 7 9 11 12 13 15 17 19 20 21 22 22 22 23 23 23 23 24 24 24 23 22 23 23 22 20 20 19 19 19 18 17
5 5 4 4 3 2 3 4 5 6 8 10 11 13 16 17 18 20 21 22 22 23 23 23 23 24 25 26 26 25 24 23 23 23 23 23 21 20 20 20 19 18 17
3 2 1 0 2 3 5 6 8 10 12 14 15 17 18 20 21 22 24 24 25 26 25 25 25 25 25 26 26 25 24 24 25 25 24 24 23 22 22 21 20 20 19
1 1 2 4 5 7 9 11 13 15 17 18 20 21 23 24 24 25 25 26 26 26 26 26 25 25 25 26 25 25 24 24 25 25 24 24 23 23 23 21 20 21 20

GFSGL_850_spd_072.txt.gz
Wind_Speed
12 15 17 18 21 24 29 33 36 38 37 37 36 35 40 41 42 41 47 43 40 40 44 45 47 44 38 35 31 28 27 25 19 17 15 13 12 12 14 14 15 15 15
16 18 18 19 20 23 27 30 32 35 34 33 33 34 37 40 42 48 45 48 45 46 46 45 43 41 36 33 31 30 29 26 17 14 14 14 14 12 15 16 16 17 17
20 20 23 24 24 24 25 27 31 34 33 32 33 34 34 39 41 42 46 42 47 48 43 44 40 40 37 34 33 31 28 20 14 14 15 16 13 16 16 17 17 18 20
26 25 25 27 29 28 28 28 30 32 32 32 32 33 34 36 38 39 40 42 49 44 43 39 39 40 39 37 34 30 22 16 14 15 14 16 16 18 17 18 20 21 24
29 29 28 28 32 34 33 32 32 31 30 32 32 32 33 36 37 39 37 44 45 42 40 36 38 36 35 34 34 26 15 14 14 15 16 17 20 18 19 19 23 25 27
34 35 35 36 37 39 36 34 35 32 28 29 32 31 32 35 35 36 37 40 41 41 38 35 34 34 34 32 26 15 9 11 13 13 18 22 20 20 20 21 25 26 31
31 30 31 32 36 37 35 34 34 32 29 29 31 30 31 34 34 35 35 37 39 39 35 34 36 37 37 34 26 11 10 10 14 20 22 23 23 21 22 25 27 29 31
26 24 24 25 28 32 34 34 33 31 31 30 31 30 30 33 33 33 33 32 34 34 30 32 35 37 38 34 21 10 12 15 25 24 23 24 29 25 23 26 29 31 33
26 27 27 26 25 26 29 30 30 30 30 29 29 30 29 32 32 31 30 30 31 31 31 32 35 38 34 28 17 19 19 22 24 24 28 33 28 27 24 27 30 30 33
23 23 23 21 22 22 22 24 26 26 26 26 28 29 29 29 30 29 30 29 30 35 31 31 32 34 36 29 22 27 24 21 22 25 26 26 24 25 26 24 25 28 27
21 20 19 18 18 16 16 17 19 21 21 24 26 27 27 25 25 25 26 27 29 33 36 36 35 36 34 30 29 30 23 21 24 24 25 25 26 25 24 22 23 22 22
19 18 16 15 14 13 11 13 13 14 16 18 19 20 19 20 19 17 18 16 21 31 35 31 31 32 31 29 28 29 26 25 25 24 25 26 25 24 23 23 21 22 25
16 14 12 12 11 10 8 7 8 9 10 12 12 12 13 13 11 11 15 15 21 26 27 25 26 28 28 28 26 24 27 30 24 24 25 25 22 23 24 21 23 26 25
13 11 8 7 6 5 5 6 6 6 6 7 8 7 7 7 9 13 16 14 17 20 22 23 24 25 25 28 32 33 32 31 26 26 24 23 26 25 25 27 26 25 24
8 6 4 3 4 5 5 6 6 6 6 6 5 4 2 1 3 9 16 17 16 18 19 19 20 24 29 30 30 31 31 27 22 22 23 24 26 27 27 26 24 24 23
3 4 6 8 9 10 10 12 12 12 11 10 9 9 7 6 6 6 10 15 18 16 17 21 24 24 24 27 29 28 27 25 25 24 24 25 25 25 24 23 24 23 22
6 9 11 11 11 12 11 9 10 12 10 9 9 8 6 6 6 6 7 10 13 15 18 18 20 22 25 26 25 25 25 25 25 24 23 23 22 21 21 22 22 22 22
8 10 12 14 13 12 13 13 11 10 9 10 8 7 6 5 5 5 7 9 11 15 18 19 20 22 22 22 22 22 21 21 21 21 20 20 21 22 22 21 21 21 21
9 10 12 13 13 11 10 11 9 9 8 7 6 5 6 6 6 8 9 12 13 15 17 17 16 15 14 15 16 17 18 18 19 20 21 22 22 21 21 21 20 20 19
9 8 8 7 10 9 9 7 7 7 6 5 5 4 5 4 4 3 3 4 5 7 9 10 12 13 14 15 15 17 18 20 21 21 22 22 22 21 21 21 19 18 17
6 5 7 7 7 7 6 5 5 4 2 2 2 1 0 0 1 3 4 6 8 10 12 13 15 16 17 18 19 20 21 22 22 22 22 22 22 22 21 20 19 17 16
7 5 6 6 7 7 6 5 4 3 2 1 2 3 4 6 7 8 9 10 12 13 15 17 18 18 19 20 20 21 22 22 23 22 22 23 23 21 20 19 18 18 17
7 7 7 7 7 6 6 5 3 2 0 2 4 6 7 8 10 11 12 13 15 16 18 19 20 20 20 20 20 21 21 21 22 22 22 22 21 20 19 19 18 19 18
7 7 7 7 6 4 3 2 1 1 3 6 7 8 9 11 12 14 16 17 18 19 19 20 21 21 21 21 22 22 22 22 22 21 21 22 21 21 21 20 19 19 18
7 5 5 4 3 1 1 2 4 6 8 10 12 14 15 16 17 18 19 20 21 22 22 22 22 22 22 23 22 22 22 22 23 23 22 22 23 22 21 21 21 20 19
4 2 2 2 3 5 7 8 9 11 13 14 16 17 19 20 21 21 22 23 23 23 24 24 23 23 23 23 23 23 23 22 22 23 23 24 24 23 23 22 21 21 20

GFSGL_850_spd_075.txt.gz
Wind_Speed
6 10 14 17 19 22 24 26 29 30 32 34 33 33 35 37 41 44 50 51 46 51 52 47 47 43 44 48 46 43 41 34 35 31 29 28 21 21 22 21 21 20 17
10 17 19 21 22 24 25 26 27 29 31 32 32 31 32 35 39 39 44 47 47 53 48 46 47 48 47 47 47 43 41 34 36 30 30 27 23 20 20 21 20 20 18
22 23 21 24 26 28 29 30 31 30 33 34 33 32 32 33 35 35 38 45 44 46 45 52 46 49 50 48 47 43 34 35 33 29 27 25 21 22 23 21 21 17 20
28 28 29 28 30 31 31 31 33 34 35 34 33 32 31 32 33 34 35 41 42 47 46 45 49 49 48 46 42 37 34 33 31 27 23 20 21 21 21 22 19 21 20
27 31 32 30 31 34 35 34 35 36 37 36 33 32 32 33 33 35 35 39 38 41 45 45 45 43 41 37 37 37 30 30 32 25 21 19 19 23 23 17 22 19 21
33 34 32 32 31 34 37 38 38 38 36 34 33 32 33 34 32 34 34 39 38 39 41 39 40 40 35 33 33 24 26 34 26 21 20 17 19 17 19 21 23 21 23
34 33 31 31 31 30 31 32 33 33 32 32 30 29 30 32 31 32 35 37 37 38 39 38 38 36 32 33 27 28 28 24 19 14 14 14 19 23 20 22 23 25 26
30 30 29 28 28 29 29 29 29 29 30 29 28 27 28 27 29 30 33 35 35 35 35 35 33 32 29 29 32 33 32 22 14 11 17 19 22 21 27 26 27 28 26
23 25 27 28 29 29 29 27 26 26 27 27 27 27 26 25 28 28 32 32 31 30 31 29 26 25 25 29 36 36 29 19 17 17 16 20 23 26 24 22 25 24 25
23 22 23 24 25 25 24 24 24 23 22 23 24 23 24 25 27 27 27 27 27 28 26 24 22 22 28 34 38 32 27 17 16 16 12 18 20 20 20 22 22 24 21
24 24 23 23 22 21 20 20 20 21 20 19 19 19 21 22 23 22 22 21 23 23 24 26 26 26 32 34 32 27 22 17 14 12 15 20 20 20 22 24 25 22 20
24 23 22 21 20 20 18 16 15 15 14 14 14 16 17 17 17 15 15 13 13 16 21 25 27 29 32 32 27 18 16 21 20 21 21 23 21 20 19 19 18 17 18
24 22 20 20 18 16 15 12 11 11 9 10 12 12 12 11 9 9 15 15 9 11 15 20 26 28 31 28 21 25 25 18 19 23 25 25 21 19 18 17 18 18 19
22 20 18 16 14 12 10 8 7 6 7 8 8 7 7 7 7 10 16 13 7 7 10 17 21 25 25 28 28 26 21 24 27 29 28 23 22 20 19 19 20 21 24
19 16 13 10 8 6 4 4 4 7 8 7 8 9 6 5 7 11 15 13 9 9 14 19 22 22 24 27 28 26 24 26 26 26 24 22 21 21 22 22 22 25 25
13 12 10 7 6 6 7 9 10 8 9 12 14 12 13 12 12 14 15 14 11 12 15 18 19 19 20 20 22 24 23 23 23 23 20 18 19 21 23 25 25 25 24
11 11 8 7 9 10 10 11 13 11 10 9 12 13 12 11 12 13 13 13 11 11 12 13 13 14 15 17 19 20 21 19 19 19 20 21 21 22 25 25 24 24 25
9 8 7 7 9 10 9 9 9 9 9 9 9 10 11 10 10 12 12 12 14 15 13 11 12 13 14 16 17 18 18 18 18 19 20 19 19 20 21 22 23 23 23
9 8 8 9 10 10 9 9 8 7 7 6 6 6 7 6 6 7 9 8 9 9 9 10 12 14 13 12 12 12 13 14 15 16 17 18 19 20 21 22 22 22 22
9 8 8 8 9 9 7 6 6 6 7 7 7 9 9 8 7 7 7 8 9 9 8 8 7 8 9 10 11 12 14 15 16 18 18 19 20 21 21 21 21 20 20
12 10 9 8 8 7 6 5 6 8 7 6 6 6 5 4 4 4 3 3 4 5 6 7 8 9 11 12 14 15 16 17 17 18 19 19 20 20 20 20 21 20 19
13 12 11 9 7 7 7 7 7 6 5 4 3 2 2 1 1 1 2 3 5 6 8 9 11 12 14 15 16 17 17 18 18 18 18 19 19 20 21 21 20 19 19
11 10 10 9 9 9 9 8 7 6 4 3 1 1 2 3 5 6 7 8 10 11 12 13 15 16 16 17 18 19 19 19 20 20 20 20 20 20 20 20 19 19 19
10 10 9 10 9 9 8 7 5 3 1 1 3 4 6 7 8 10 11 13 14 16 17 18 18 19 20 20 20 21 21 21 20 20 20 20 20 20 20 19 18 18 19
9 9 9 9 9 7 6 4 2 1 3 4 6 8 9 11 13 14 16 17 18 18 19 19 19 20 20 20 20 20 20 20 20 20 19 19 19 19 20 19 18 19 19
7 7 7 6 5 3 2 2 4 5 7 9 11 13 14 16 17 18 19 19 20 20 20 20 20 19 19 19 19 19 19 19 19 19 20 20 20 20 20 19 19 20 21